Terug naar catalogus

FENGYUN 1C DEB

ActiefSSO
NORAD 30523·DEBRIS·🇨🇳 China

Gelanceerd May 10, 1999 vanaf Taiyuan Satellite Launch Center

Loading…

Volgende Passages (komende 24 uur)

TLE

VersSource: Space-Track

Epoch: Sep 14, 2026, 04:35 UTC

1 30523U 99025AJM 26257.19128271  .00000657  00000-0  20644-3 0  9998
2 30523  98.4973 233.0284 0242411  18.4348 355.0081 14.28335677 20324

Volg FENGYUN 1C DEB in realtime met AllMySat

Download on the App Store